TimeCST,TemperatureF,Dew PointF,Humidity,Sea Level PressureIn,VisibilityMPH,Wind Direction,Wind SpeedMPH,Gust SpeedMPH,PrecipitationIn,Events,Conditions,WindDirDegrees,DateUTC
12:52 AM,17.1,6.1,62,30.27,10.0,North,13.8,20.7,N/A,,Clear,350,2013-02-16 06:52:00
1:52 AM,16.0,5.0,62,30.27,10.0,NNW,8.1,-,N/A,,Clear,330,2013-02-16 07:52:00
2:52 AM,15.8,6.8,68,30.24,10.0,NNW,6.9,-,N/A,,Clear,330,2013-02-16 08:52:00
3:52 AM,14.0,5.0,67,30.25,10.0,NW,6.9,-,N/A,,Clear,310,2013-02-16 09:52:00
4:52 AM,14.0,6.1,71,30.25,10.0,WNW,6.9,-,N/A,,Clear,300,2013-02-16 10:52:00
5:52 AM,14.0,6.8,73,30.21,10.0,WNW,4.6,-,N/A,,Clear,300,2013-02-16 11:52:00
6:52 AM,14.0,6.1,71,30.25,10.0,WNW,6.9,-,N/A,,Clear,300,2013-02-16 12:52:00
7:52 AM,16.0,7.0,68,30.25,10.0,WNW,9.2,-,N/A,,Clear,290,2013-02-16 13:52:00
8:52 AM,19.0,7.0,59,30.25,10.0,WNW,9.2,-,N/A,,Clear,290,2013-02-16 14:52:00
9:52 AM,19.9,9.0,62,30.25,10.0,West,12.7,-,N/A,,Partly Cloudy,280,2013-02-16 15:52:00
10:52 AM,21.9,10.0,60,30.24,10.0,West,11.5,19.6,N/A,,Scattered Clouds,280,2013-02-16 16:52:00
11:19 AM,21.2,10.4,63,30.20,10.0,NW,17.3,21.9,N/A,,Mostly Cloudy,310,2013-02-16 17:19:00
11:52 AM,23.0,10.0,58,30.22,10.0,NW,15.0,18.4,N/A,,Overcast,310,2013-02-16 17:52:00
12:52 PM,25.0,10.9,55,30.20,10.0,West,13.8,19.6,N/A,,Overcast,280,2013-02-16 18:52:00
1:43 PM,24.8,12.2,59,30.16,10.0,NW,12.7,19.6,N/A,,Scattered Clouds,310,2013-02-16 19:43:00
1:52 PM,25.0,10.9,55,30.19,10.0,NW,15.0,-,N/A,,Scattered Clouds,310,2013-02-16 19:52:00
2:52 PM,26.1,10.9,53,30.18,10.0,NNW,16.1,21.9,N/A,,Partly Cloudy,330,2013-02-16 20:52:00
3:52 PM,26.1,10.9,53,30.18,10.0,NW,13.8,-,N/A,,Clear,320,2013-02-16 21:52:00
4:52 PM,24.1,12.0,60,30.18,10.0,NW,12.7,-,N/A,,Partly Cloudy,320,2013-02-16 22:52:00
5:52 PM,21.9,12.0,66,30.20,10.0,NW,6.9,-,N/A,,Clear,310,2013-02-16 23:52:00
6:52 PM,21.0,12.0,68,30.22,10.0,North,3.5,-,N/A,,Scattered Clouds,350,2013-02-17 00:52:00
7:52 PM,19.0,10.9,71,30.22,10.0,Calm,Calm,-,N/A,,Clear,0,2013-02-17 01:52:00
8:52 PM,18.0,10.0,71,30.22,10.0,Calm,Calm,-,N/A,,Clear,0,2013-02-17 02:52:00
9:52 PM,15.1,10.9,84,30.21,10.0,Calm,Calm,-,N/A,,Clear,0,2013-02-17 03:52:00
10:52 PM,14.0,9.0,80,30.20,10.0,ENE,5.8,-,N/A,,Clear,60,2013-02-17 04:52:00
11:52 PM,12.9,9.0,84,30.20,10.0,ESE,6.9,-,N/A,,Clear,110,2013-02-17 05:52:00